Weather History for Broken Bow, NE

Change the Weather History Date:

Monday, October 24, 2011

  Actual Average Record
Temperature  
Mean Temperature 52 °F 46 °F  
Max Temperature 71 °F 60 °F 89 °F (1915)
Min Temperature 32 °F 33 °F 12 °F (1910)
Degree Days  
Heating Degree Days 13 19  
Month to date heating degree days 283 347  
Cooling Degree Days 0 0  
Month to date cooling degree days 8 2  
Year to date cooling degree days 755 764  
Growing Degree Days 2 (Base 50)    
Moisture  
Dew Point 37 °F    
Average Humidity 64    
Maximum Humidity 96    
Minimum Humidity 31    
Precipitation  
Precipitation 0.00 in 0.05 in 0.45 in (1925)
Sea Level Pressure  
Sea Level Pressure 29.94 in    
Wind  
Wind Speed 5 mph (SSE)    
Max Wind Speed 20 mph    
Max Gust Speed 37 mph    
Visibility 10 miles    
Events      
T = Trace of Precipitation, MM = Missing Value Source: NWS Daily Summary

Daily Weather History Graph

Daily Weather History Graph

Search for Another Location

Airport:

Trip Planner

Search our weather history database for the weather conditions in past years. The results will help you decide how hot, cold, wet, or windy it might be!

Date:

Astronomy

Oct. 24, 2011 Rise Set
Actual Time 8:00 AM CDT 6:44 PM CDT
Civil Twilight 7:32 AM CDT 7:12 PM CDT
Nautical Twilight 6:59 AM CDT 7:45 PM CDT
Astronomical Twilight 6:27 AM CDT 8:17 PM CDT
Moon 5:19 AM CDT (10/24) 5:11 PM CDT (10/24)
Length of Visible Light 11h 40m
Length of Day
10h 44m
Waning Crescent, 7% of the Moon is Illuminated
Oct 24
Waning Crescent
Oct 26
New
Nov 2
First Quarter
Nov 10
Full
Nov 18
Last Quarter

Hourly Weather History & Observations

Time (CDT) Temp. Windchill Dew Point Humidity Pressure Visibility Wind Dir Wind Speed Gust Speed Precip Events Conditions
12:53 AM 37.0 °F - 34.0 °F 89% 30.08 in 10.0 mi Calm Calm - N/A   Clear
1:53 AM 37.0 °F - 34.0 °F 89% 30.08 in 10.0 mi Calm Calm - N/A   Clear
2:53 AM 34.0 °F 31.0 °F 32.0 °F 92% 30.08 in 10.0 mi North 3.5 mph - N/A   Clear
3:53 AM 35.1 °F - 33.1 °F 92% 30.07 in 10.0 mi Calm Calm - N/A   Clear
4:53 AM 33.1 °F - 30.9 °F 92% 30.06 in 10.0 mi Calm Calm - N/A   Clear
5:53 AM 34.0 °F - 32.0 °F 92% 30.05 in 10.0 mi Calm Calm - N/A   Clear
6:53 AM 34.0 °F - 30.9 °F 89% 30.07 in 10.0 mi Calm Calm - N/A   Clear
7:53 AM 41.0 °F 36.4 °F 34.0 °F 76% 30.06 in 10.0 mi SE 6.9 mph - N/A   Clear
8:53 AM 46.0 °F 42.5 °F 37.0 °F 71% 30.05 in 10.0 mi SE 6.9 mph - N/A   Clear
9:53 AM 52.0 °F - 37.9 °F 59% 30.04 in 10.0 mi South 10.4 mph - N/A   Clear
10:53 AM 59.0 °F - 37.9 °F 46% 30.02 in 10.0 mi South 9.2 mph - N/A   Clear
11:53 AM 63.0 °F - 39.0 °F 41% 30.00 in 10.0 mi South 11.5 mph - N/A   Clear
12:53 PM 66.0 °F - 37.0 °F 34% 29.96 in 10.0 mi SSW 11.5 mph - N/A   Clear
1:53 PM 68.0 °F - 37.4 °F 33% 29.91 in 10.0 mi South 18.4 mph 25.3 mph N/A   Clear
2:53 PM 68.0 °F - 39.0 °F 35% 29.87 in 10.0 mi SSE 13.8 mph - N/A   Clear
3:53 PM 71.1 °F - 39.0 °F 31% 29.85 in 10.0 mi SSE 11.5 mph 19.6 mph N/A   Clear
4:53 PM 71.1 °F - 39.9 °F 32% 29.84 in 10.0 mi South 12.7 mph 24.2 mph N/A   Clear
5:53 PM 69.1 °F - 42.1 °F 38% 29.81 in 10.0 mi SE 3.5 mph - N/A   Clear
6:53 PM 55.9 °F - 39.9 °F 55% 29.82 in 10.0 mi North 3.5 mph - N/A   Clear
7:53 PM 48.9 °F - 39.9 °F 71% 29.82 in 10.0 mi North 3.5 mph - N/A   Clear
8:53 PM 44.6 °F 43.1 °F 39.2 °F 81% 29.79 in 10.0 mi North 3.5 mph - N/A   Clear
9:53 PM 44.1 °F - 39.0 °F 82% 29.79 in 10.0 mi Calm Calm - N/A   Clear
10:53 PM 39.2 °F - 37.4 °F 93% 29.76 in 10.0 mi Calm Calm - N/A   Clear
11:53 PM 39.9 °F - 37.0 °F 89% 29.73 in 10.0 mi Calm Calm - N/A   Clear